IRIDIUM 33 DEB

基本信息
目录编号:
35929
目录名称:
IRIDIUM 33 DEB
国际标识:
1997-051UN
轨道中心:
EARTH
物体状态:
在轨
发射日期:
1997-09-14 UTC
轨道信息
数据来源: 国际轨道数据
星历时间: 2026-09-10T09:36:05+0800
半长轴: 6868.665km
偏心率: 0.0015337
轨道倾角: 86.342°
近地点辐角: 90.793°
升交点赤经: 181.964°
平近点角: 269.508°
近地点: 479.993km
远地点: 501.063km
周期: 94.421分钟
每日圈数: 15.250858
详细信息
发射场:
TTMTR
轨道高度:
LEO
数据来源:
AOE Integration Group
参考系:
TEME
时间系统:
UTC
历元类型:
SGP4
2D轨道图
3D轨道图
轨道高度分析图
轨道倾角分析图
轨道综合分析图
查看轨道综合分析图